TimeCST,TemperatureF,Dew PointF,Humidity,Sea Level PressureIn,VisibilityMPH,Wind Direction,Wind SpeedMPH,Gust SpeedMPH,PrecipitationIn,Events,Conditions,WindDirDegrees,DateUTC
12:56 AM,37.0,33.1,86,30.13,10.0,Calm,Calm,-,N/A,,Clear,0,2013-01-21 06:56:00
1:56 AM,36.0,33.1,89,30.12,10.0,Calm,Calm,-,N/A,,Clear,0,2013-01-21 07:56:00
2:56 AM,36.0,33.1,89,30.11,10.0,Calm,Calm,-,N/A,,Clear,0,2013-01-21 08:56:00
4:56 AM,35.1,32.0,89,30.12,10.0,North,3.5,-,N/A,,Clear,350,2013-01-21 10:56:00
5:56 AM,34.0,30.9,89,30.13,10.0,North,5.8,-,N/A,,Clear,350,2013-01-21 11:56:00
6:56 AM,36.0,33.1,89,30.15,10.0,North,3.5,-,N/A,,Clear,360,2013-01-21 12:56:00
7:56 AM,41.0,36.0,82,30.16,10.0,North,4.6,-,N/A,,Clear,350,2013-01-21 13:56:00
8:56 AM,52.0,41.0,66,30.18,10.0,Calm,Calm,-,N/A,,Clear,0,2013-01-21 14:56:00
9:56 AM,57.9,42.1,56,30.19,10.0,Variable,3.5,-,N/A,,Clear,0,2013-01-21 15:56:00
10:56 AM,61.0,39.0,44,30.17,10.0,WNW,5.8,-,N/A,,Clear,300,2013-01-21 16:56:00
11:56 AM,63.0,39.9,43,30.14,10.0,North,11.5,17.3,N/A,,Clear,350,2013-01-21 17:56:00
12:56 PM,64.0,39.9,41,30.12,10.0,NNW,8.1,-,N/A,,Clear,340,2013-01-21 18:56:00
1:56 PM,64.9,37.9,37,30.11,10.0,North,13.8,-,N/A,,Clear,350,2013-01-21 19:56:00
2:56 PM,64.0,37.9,38,30.12,10.0,NNW,10.4,-,N/A,,Clear,330,2013-01-21 20:56:00
3:56 PM,63.0,37.0,38,30.13,10.0,North,13.8,-,N/A,,Scattered Clouds,350,2013-01-21 21:56:00
4:56 PM,59.0,37.0,44,30.15,10.0,NNW,6.9,-,N/A,,Clear,340,2013-01-21 22:56:00
5:56 PM,55.9,36.0,47,30.17,10.0,NNW,9.2,-,N/A,,Clear,340,2013-01-21 23:56:00
6:56 PM,53.1,36.0,52,30.18,10.0,NNW,5.8,-,N/A,,Clear,330,2013-01-22 00:56:00
7:56 PM,51.1,35.1,54,30.19,10.0,NNW,5.8,-,N/A,,Clear,330,2013-01-22 01:56:00
8:56 PM,48.9,34.0,56,30.20,10.0,NNW,8.1,-,N/A,,Clear,340,2013-01-22 02:56:00
9:56 PM,46.0,32.0,58,30.20,10.0,NNW,4.6,-,N/A,,Clear,330,2013-01-22 03:56:00
10:56 PM,43.0,32.0,65,30.20,10.0,North,4.6,-,N/A,,Clear,360,2013-01-22 04:56:00
11:56 PM,42.1,30.9,65,30.20,10.0,North,5.8,-,N/A,,Clear,360,2013-01-22 05:56:00